EDT,Max TemperatureF,Mean TemperatureF,Min TemperatureF,Max Dew PointF,MeanDew PointF,Min DewpointF,Max Humidity, Mean Humidity, Min Humidity, Max Sea Level PressureIn, Mean Sea Level PressureIn, Min Sea Level PressureIn, Max VisibilityMiles, Mean VisibilityMiles, Min VisibilityMiles, Max Wind SpeedMPH, Mean Wind SpeedMPH, Max Gust SpeedMPH,PrecipitationIn, CloudCover, Events, WindDirDegrees
2013-8-1,77,70,62,66,55,46,100,59,34,29.99,29.97,29.96,10,8,2,14,6,17,0.00,4,,298
2013-8-2,77,68,60,68,61,55,94,82,65,29.98,29.93,29.87,10,9,2,12,7,18,0.00,6,Rain,225
2013-8-3,77,70,64,66,56,45,100,63,34,30.07,30.04,30.01,10,8,0,10,4,16,0.00,4,Fog,326
2013-8-4,75,66,60,55,51,46,82,53,36,30.21,30.19,30.16,10,10,10,8,6,,0.00,1,,352
2013-8-5,73,63,53,59,55,48,94,64,49,30.12,30.04,29.96,10,10,10,8,3,,0.00,6,,194
2013-8-6,78,70,62,66,66,63,100,78,65,29.94,29.92,29.90,10,9,4,10,7,,0.00,6,Rain,188
2013-8-7,77,73,69,70,68,64,100,85,78,29.91,29.88,29.85,10,8,2,18,6,31,0.00,5,Rain-Thunderstorm,192
2013-8-8,77,70,64,61,59,57,83,61,50,30.02,29.99,29.97,10,10,10,10,7,16,0.00,2,,43
2013-8-9,80,71,62,61,57,54,88,56,42,30.03,30.02,30.00,10,10,10,8,3,,0.00,0,,280
2013-8-10,78,72,66,63,59,55,88,60,44,30.12,30.11,30.10,10,10,10,7,6,,0.00,4,,28
2013-8-11,78,68,59,57,55,50,94,55,42,30.15,30.13,30.09,10,10,10,10,2,,0.00,3,,313
2013-8-12,80,72,64,66,63,61,88,71,54,30.04,29.98,29.87,10,10,10,9,4,,0.00,5,,236
2013-8-13,68,62,57,57,48,45,94,60,46,30.09,30.06,29.96,10,10,10,12,7,21,0.00,4,,338
2013-8-14,69,58,48,46,45,43,93,55,38,30.22,30.20,30.17,10,10,10,10,3,17,0.00,2,,346
2013-8-15,73,60,46,54,49,46,100,60,41,30.20,30.17,30.13,10,10,10,8,1,,0.00,3,,260
2013-8-16,77,62,48,55,48,43,100,52,29,30.20,30.18,30.17,10,10,10,8,3,,0.00,1,,91
2013-8-17,80,68,55,55,51,46,94,50,34,30.27,30.24,30.20,10,10,10,10,5,,0.00,2,,104
2013-8-18,80,70,59,59,54,48,88,54,32,30.23,30.20,30.14,10,10,10,6,2,,0.00,2,,70
2013-8-19,84,70,57,61,57,52,100,58,35,30.15,30.11,30.07,10,9,5,9,2,,0.00,1,,250
2013-8-20,86,75,64,63,60,57,94,54,37,30.17,30.13,30.10,10,9,5,9,4,,0.00,1,,224
2013-8-21,87,76,66,64,62,59,94,56,40,30.15,30.10,30.02,10,9,5,10,4,17,0.00,1,,211
2013-8-22,77,72,66,68,66,64,100,83,74,30.13,30.08,30.02,10,9,1,21,5,28,0.00,3,Rain-Thunderstorm,270
2013-8-23,80,72,64,64,51,46,100,46,30,30.19,30.16,30.13,10,10,3,10,5,,0.00,0,,55
2013-8-24,82,70,57,55,51,48,88,46,30,30.31,30.29,30.25,10,10,10,9,5,,0.00,0,,135
2013-8-25,86,75,64,59,58,57,83,52,37,30.30,30.26,30.20,10,10,10,12,5,,0.00,0,,226
2013-8-26,87,76,64,68,64,59,83,60,49,30.19,30.13,30.05,10,10,10,14,6,18,0.00,0,,251
2013-8-27,91,82,73,72,68,64,83,60,43,30.02,29.97,29.90,10,10,10,13,4,20,0.00,1,,228
2013-8-28,84,80,75,72,68,64,83,69,58,30.00,29.94,29.88,10,10,7,10,7,,0.00,4,,340
2013-8-29,87,76,64,68,63,57,100,62,35,30.10,30.07,30.03,10,9,1,6,1,,0.00,2,,107
2013-8-30,91,78,66,68,66,63,100,60,40,29.98,29.91,29.80,10,8,2,12,6,17,0.00,1,,212
2013-8-31,80,74,69,66,66,64,88,70,58,29.87,29.85,29.80,10,9,7,6,4,,0.00,3,,16